Time,TemperatureF,DewpointF,PressureIn,WindDirection,WindDirectionDegrees,WindSpeedMPH,WindSpeedGustMPH,Humidity,HourlyPrecipIn,Conditions,Clouds,dailyrainin,SoftwareType,DateUTC
2013-06-19 00:02:00,66.0,-99.9,-100.00,NE,36,5.0,10.0,-999,-99.99,,,-99.99,,2013-06-19 04:02:00,
2013-06-19 00:12:00,66.0,-99.9,-100.00,NNE,21,5.0,8.0,-999,-99.99,,,-99.99,,2013-06-19 04:12:00,
2013-06-19 00:23:00,65.0,-99.9,-100.00,NE,45,7.0,13.0,-999,-99.99,,,-99.99,,2013-06-19 04:23:00,
2013-06-19 00:33:00,65.0,-99.9,-100.00,NE,34,5.0,10.0,-999,-99.99,,,-99.99,,2013-06-19 04:33:00,
2013-06-19 00:43:00,65.0,-99.9,-100.00,ENE,59,4.0,10.0,-999,-99.99,,,-99.99,,2013-06-19 04:43:00,
2013-06-19 00:53:00,65.0,-99.9,-100.00,NE,43,3.0,6.0,-999,-99.99,,,-99.99,,2013-06-19 04:53:00,
2013-06-19 01:01:00,65.0,-99.9,29.86,NE,41,4.0,6.0,-999,-99.99,,,-99.99,,2013-06-19 05:01:00,
2013-06-19 01:11:00,65.0,-99.9,-100.00,NE,52,6.0,10.0,-999,-99.99,,,-99.99,,2013-06-19 05:11:00,
2013-06-19 01:23:00,65.0,-99.9,-100.00,NE,51,4.0,11.0,-999,-99.99,,,-99.99,,2013-06-19 05:23:00,
2013-06-19 01:33:00,65.0,-99.9,29.86,NE,52,7.0,9.0,-999,-99.99,,,-99.99,,2013-06-19 05:33:00,
2013-06-19 01:43:00,64.0,-99.9,-100.00,NE,34,7.0,14.0,-999,-99.99,,,-99.99,,2013-06-19 05:43:00,
2013-06-19 01:52:00,64.0,-99.9,-100.00,NNE,27,8.0,14.0,-999,-99.99,,,-99.99,,2013-06-19 05:52:00,
2013-06-19 02:02:00,64.0,-99.9,-100.00,NNE,31,8.0,13.0,-999,-99.99,,,-99.99,,2013-06-19 06:02:00,
2013-06-19 02:12:00,64.0,-99.9,-100.00,NE,40,6.0,14.0,-999,-99.99,,,-99.99,,2013-06-19 06:12:00,
2013-06-19 02:22:00,64.0,-99.9,-100.00,NE,36,8.0,12.0,-999,-99.99,,,-99.99,,2013-06-19 06:22:00,
2013-06-19 02:34:00,64.0,-99.9,29.86,NNE,31,8.0,13.0,-999,-99.99,,,-99.99,,2013-06-19 06:34:00,
2013-06-19 02:43:00,63.0,-99.9,-100.00,NNE,29,7.0,16.0,-999,-99.99,,,-99.99,,2013-06-19 06:43:00,
2013-06-19 02:52:00,63.0,-99.9,-100.00,NE,37,8.0,15.0,-999,-99.99,,,-99.99,,2013-06-19 06:52:00,
2013-06-19 03:02:00,63.0,-99.9,-100.00,NE,37,8.0,15.0,-999,-99.99,,,-99.99,,2013-06-19 07:02:00,
2013-06-19 03:12:00,63.0,-99.9,-100.00,NE,36,7.0,13.0,-999,-99.99,,,-99.99,,2013-06-19 07:12:00,
2013-06-19 03:23:00,63.0,-99.9,-100.00,NE,54,9.0,12.0,-999,-99.99,,,-99.99,,2013-06-19 07:23:00,
2013-06-19 03:33:00,63.0,-99.9,29.88,NNE,25,7.0,15.0,-999,-99.99,,,-99.99,,2013-06-19 07:33:00,
2013-06-19 03:43:00,63.0,-99.9,29.88,NE,37,7.0,11.0,-999,-99.99,,,-99.99,,2013-06-19 07:43:00,
2013-06-19 03:54:00,63.0,-99.9,29.88,NE,37,7.0,11.0,-999,-99.99,,,-99.99,,2013-06-19 07:54:00,
2013-06-19 04:11:00,62.0,-99.9,-100.00,NNE,28,6.0,11.0,-999,-99.99,,,-99.99,,2013-06-19 08:11:00,
2013-06-19 04:22:00,62.0,-99.9,-100.00,NNE,26,10.0,16.0,-999,-99.99,,,-99.99,,2013-06-19 08:22:00,
2013-06-19 04:34:00,62.0,-99.9,29.88,NNE,31,8.0,15.0,-999,-99.99,,,-99.99,,2013-06-19 08:34:00,
2013-06-19 04:43:00,62.0,-99.9,-100.00,NNE,29,9.0,15.0,-999,-99.99,,,-99.99,,2013-06-19 08:43:00,
2013-06-19 04:54:00,62.0,-99.9,-100.00,NNE,22,9.0,12.0,-999,-99.99,,,-99.99,,2013-06-19 08:54:00,
2013-06-19 05:02:00,62.0,-99.9,-100.00,NNE,22,9.0,12.0,-999,-99.99,,,-99.99,,2013-06-19 09:02:00,
2013-06-19 05:12:00,62.0,-99.9,-100.00,NNE,32,7.0,13.0,-999,-99.99,,,-99.99,,2013-06-19 09:12:00,
2013-06-19 05:22:00,62.0,-99.9,-100.00,NNE,31,5.0,13.0,-999,-99.99,,,-99.99,,2013-06-19 09:22:00,
2013-06-19 05:34:00,62.0,-99.9,-100.00,NNE,31,5.0,13.0,-999,-99.99,,,-99.99,,2013-06-19 09:34:00,
2013-06-19 05:44:00,62.0,-99.9,-100.00,NNE,22,9.0,12.0,-999,-99.99,,,-99.99,,2013-06-19 09:44:00,
2013-06-19 05:53:00,62.0,-99.9,-100.00,NNE,20,8.0,14.0,-999,-99.99,,,-99.99,,2013-06-19 09:53:00,
2013-06-19 06:02:00,62.0,-99.9,-100.00,NNE,20,8.0,14.0,-999,-99.99,,,-99.99,,2013-06-19 10:02:00,
2013-06-19 06:12:00,61.0,-99.9,-100.00,NNE,23,10.0,15.0,-999,-99.99,,,-99.99,,2013-06-19 10:12:00,
2013-06-19 06:22:00,61.0,-99.9,-100.00,NNE,21,10.0,15.0,-999,-99.99,,,-99.99,,2013-06-19 10:22:00,
2013-06-19 06:33:00,61.0,-99.9,29.91,NNE,22,10.0,15.0,-999,-99.99,,,-99.99,,2013-06-19 10:33:00,
2013-06-19 06:43:00,61.0,-99.9,-100.00,NNE,24,10.0,15.0,-999,-99.99,,,-99.99,,2013-06-19 10:43:00,
2013-06-19 06:53:00,61.0,-99.9,-100.00,NNE,26,8.0,15.0,-999,-99.99,,,-99.99,,2013-06-19 10:53:00,
2013-06-19 07:02:00,61.0,-99.9,29.92,NNE,16,9.0,14.0,-999,-99.99,,,-99.99,,2013-06-19 11:02:00,
2013-06-19 07:12:00,62.0,-99.9,-100.00,NNE,33,7.0,13.0,-999,-99.99,,,-99.99,,2013-06-19 11:12:00,
2013-06-19 07:22:00,62.0,-99.9,-100.00,NNE,27,8.0,13.0,-999,-99.99,,,-99.99,,2013-06-19 11:22:00,
2013-06-19 07:33:00,62.0,-99.9,-100.00,NNE,31,7.0,15.0,-999,-99.99,,,-99.99,,2013-06-19 11:33:00,
2013-06-19 07:43:00,62.0,-99.9,-100.00,NNE,31,8.0,13.0,-999,-99.99,,,-99.99,,2013-06-19 11:43:00,
2013-06-19 07:54:00,63.0,-99.9,-100.00,NNE,32,8.0,13.0,-999,-99.99,,,-99.99,,2013-06-19 11:54:00,
2013-06-19 08:02:00,63.0,-99.9,29.95,NNE,31,9.0,16.0,-999,-99.99,,,-99.99,,2013-06-19 12:02:00,
2013-06-19 08:12:00,64.0,-99.9,-100.00,NNE,28,7.0,13.0,-999,-99.99,,,-99.99,,2013-06-19 12:12:00,
2013-06-19 08:22:00,64.0,-99.9,-100.00,NNE,26,8.0,15.0,-999,-99.99,,,-99.99,,2013-06-19 12:22:00,
2013-06-19 08:34:00,64.0,-99.9,29.97,NNE,31,8.0,14.0,-999,-99.99,,,-99.99,,2013-06-19 12:34:00,
2013-06-19 08:44:00,64.0,-99.9,-100.00,NNE,31,9.0,15.0,-999,-99.99,,,-99.99,,2013-06-19 12:44:00,
2013-06-19 08:53:00,65.0,-99.9,-100.00,NNE,26,6.0,14.0,-999,-99.99,,,-99.99,,2013-06-19 12:53:00,
2013-06-19 09:02:00,65.0,-99.9,-100.00,NNE,26,6.0,14.0,-999,-99.99,,,-99.99,,2013-06-19 13:02:00,
2013-06-19 09:12:00,65.0,-99.9,29.98,NE,34,9.0,13.0,-999,-99.99,,,-99.99,,2013-06-19 13:12:00,
2013-06-19 09:22:00,65.0,-99.9,-100.00,NNE,25,10.0,16.0,-999,-99.99,,,-99.99,,2013-06-19 13:22:00,
2013-06-19 09:33:00,65.0,-99.9,-100.00,NE,39,6.0,13.0,-999,-99.99,,,-99.99,,2013-06-19 13:33:00,
2013-06-19 09:43:00,66.0,-99.9,-100.00,NNE,23,7.0,13.0,-999,-99.99,,,-99.99,,2013-06-19 13:43:00,
2013-06-19 09:54:00,66.0,-99.9,-100.00,NE,36,6.0,13.0,-999,-99.99,,,-99.99,,2013-06-19 13:54:00,
2013-06-19 10:02:00,66.0,-99.9,30.00,NNE,23,11.0,14.0,-999,-99.99,,,-99.99,,2013-06-19 14:02:00,
2013-06-19 10:12:00,66.0,-99.9,30.00,NNE,23,11.0,14.0,-999,-99.99,,,-99.99,,2013-06-19 14:12:00,
2013-06-19 10:23:00,67.0,-99.9,-100.00,NE,37,5.0,10.0,-999,-99.99,,,-99.99,,2013-06-19 14:23:00,
2013-06-19 10:34:00,67.0,-99.9,30.01,NNE,17,7.0,14.0,-999,-99.99,,,-99.99,,2013-06-19 14:34:00,
2013-06-19 10:44:00,67.0,-99.9,-100.00,NNE,22,9.0,14.0,-999,-99.99,,,-99.99,,2013-06-19 14:44:00,
2013-06-19 10:53:00,68.0,-99.9,-100.00,NNE,29,7.0,11.0,-999,-99.99,,,-99.99,,2013-06-19 14:53:00,
2013-06-19 11:02:00,68.0,-99.9,30.02,NNE,24,7.0,11.0,-999,-99.99,,,-99.99,,2013-06-19 15:02:00,
2013-06-19 11:11:00,69.0,-99.9,-100.00,NNE,20,5.0,9.0,-999,-99.99,,,-99.99,,2013-06-19 15:11:00,
2013-06-19 11:22:00,69.0,-99.9,-100.00,NNE,20,5.0,9.0,-999,-99.99,,,-99.99,,2013-06-19 15:22:00,
2013-06-19 11:33:00,69.0,-99.9,-100.00,NNE,20,7.0,13.0,-999,-99.99,,,-99.99,,2013-06-19 15:33:00,
2013-06-19 11:43:00,70.0,-99.9,-100.00,NNE,22,7.0,13.0,-999,-99.99,,,-99.99,,2013-06-19 15:43:00,
2013-06-19 11:53:00,70.0,-99.9,30.02,NNE,15,6.0,12.0,-999,-99.99,,,-99.99,,2013-06-19 15:53:00,
2013-06-19 12:02:00,70.0,-99.9,30.02,NNE,15,6.0,12.0,-999,-99.99,,,-99.99,,2013-06-19 16:02:00,
2013-06-19 12:11:00,70.0,-99.9,-100.00,NE,35,7.0,11.0,-999,-99.99,,,-99.99,,2013-06-19 16:11:00,
2013-06-19 12:22:00,71.0,-99.9,-100.00,NNE,21,10.0,13.0,-999,-99.99,,,-99.99,,2013-06-19 16:22:00,
2013-06-19 12:34:00,71.0,-99.9,-100.00,NNE,20,6.0,11.0,-999,-99.99,,,-99.99,,2013-06-19 16:34:00,
2013-06-19 12:44:00,71.0,-99.9,-100.00,NNE,22,7.0,11.0,-999,-99.99,,,-99.99,,2013-06-19 16:44:00,
2013-06-19 12:53:00,71.0,-99.9,-100.00,NNE,16,6.0,8.0,-999,-99.99,,,-99.99,,2013-06-19 16:53:00,
2013-06-19 13:02:00,71.0,-99.9,30.02,NNE,18,7.0,9.0,-999,-99.99,,,-99.99,,2013-06-19 17:02:00,
2013-06-19 13:12:00,71.0,-99.9,30.02,NNE,18,7.0,9.0,-999,-99.99,,,-99.99,,2013-06-19 17:12:00,
2013-06-19 13:22:00,72.0,-99.9,-100.00,NNE,15,6.0,9.0,-999,-99.99,,,-99.99,,2013-06-19 17:22:00,
2013-06-19 13:34:00,72.0,-99.9,-100.00,NNE,16,5.0,9.0,-999,-99.99,,,-99.99,,2013-06-19 17:34:00,
2013-06-19 13:43:00,72.0,-99.9,-100.00,North,10,4.0,7.0,-999,-99.99,,,-99.99,,2013-06-19 17:43:00,
2013-06-19 13:53:00,72.0,-99.9,-100.00,NNE,16,4.0,8.0,-999,-99.99,,,-99.99,,2013-06-19 17:53:00,
2013-06-19 14:02:00,72.0,-99.9,-100.00,NNE,16,4.0,7.0,-999,-99.99,,,-99.99,,2013-06-19 18:02:00,
2013-06-19 14:12:00,72.0,-99.9,-100.00,NNE,16,4.0,7.0,-999,-99.99,,,-99.99,,2013-06-19 18:12:00,
2013-06-19 14:24:00,72.0,-99.9,-100.00,NNE,16,4.0,7.0,-999,-99.99,,,-99.99,,2013-06-19 18:24:00,
2013-06-19 14:44:00,73.0,-99.9,-100.00,NNE,19,7.0,10.0,-999,-99.99,,,-99.99,,2013-06-19 18:44:00,
2013-06-19 14:53:00,73.0,-99.9,-100.00,North,352,6.0,9.0,-999,-99.99,,,-99.99,,2013-06-19 18:53:00,
2013-06-19 15:02:00,73.0,-99.9,30.04,NNE,17,6.0,9.0,-999,-99.99,,,-99.99,,2013-06-19 19:02:00,
2013-06-19 15:12:00,73.0,-99.9,-100.00,NNE,18,7.0,11.0,-999,-99.99,,,-99.99,,2013-06-19 19:12:00,
2013-06-19 15:22:00,73.0,-99.9,-100.00,North,2,8.0,9.0,-999,-99.99,,,-99.99,,2013-06-19 19:22:00,
2013-06-19 15:33:00,73.0,-99.9,-100.00,North,357,7.0,9.0,-999,-99.99,,,-99.99,,2013-06-19 19:33:00,
2013-06-19 15:44:00,73.0,-99.9,30.04,NNE,17,6.0,10.0,-999,-99.99,,,-99.99,,2013-06-19 19:44:00,
2013-06-19 15:53:00,74.0,-99.9,-100.00,NNE,15,6.0,7.0,-999,-99.99,,,-99.99,,2013-06-19 19:53:00,
2013-06-19 16:02:00,74.0,-99.9,30.04,North,7,7.0,9.0,-999,-99.99,,,-99.99,,2013-06-19 20:02:00,
2013-06-19 16:12:00,74.0,-99.9,-100.00,NNE,16,6.0,9.0,-999,-99.99,,,-99.99,,2013-06-19 20:12:00,
2013-06-19 16:22:00,74.0,-99.9,-100.00,NNE,12,4.0,8.0,-999,-99.99,,,-99.99,,2013-06-19 20:22:00,
2013-06-19 16:34:00,74.0,-99.9,-100.00,NNE,20,6.0,9.0,-999,-99.99,,,-99.99,,2013-06-19 20:34:00,
2013-06-19 16:43:00,74.0,-99.9,-100.00,NNE,17,8.0,9.0,-999,-99.99,,,-99.99,,2013-06-19 20:43:00,
2013-06-19 16:52:00,74.0,-99.9,-100.00,NNE,16,8.0,10.0,-999,-99.99,,,-99.99,,2013-06-19 20:52:00,
2013-06-19 17:02:00,74.0,-99.9,-100.00,NNE,16,8.0,10.0,-999,-99.99,,,-99.99,,2013-06-19 21:02:00,
2013-06-19 17:12:00,74.0,-99.9,-100.00,NNE,18,5.0,9.0,-999,-99.99,,,-99.99,,2013-06-19 21:12:00,
2013-06-19 17:22:00,74.0,-99.9,-100.00,North,350,2.0,4.0,-999,-99.99,,,-99.99,,2013-06-19 21:22:00,
2013-06-19 17:33:00,74.0,-99.9,-100.00,North,350,2.0,4.0,-999,-99.99,,,-99.99,,2013-06-19 21:33:00,
2013-06-19 17:44:00,75.0,-99.9,-100.00,NNE,18,6.0,9.0,-999,-99.99,,,-99.99,,2013-06-19 21:44:00,
2013-06-19 17:52:00,75.0,-99.9,-100.00,NNE,16,3.0,9.0,-999,-99.99,,,-99.99,,2013-06-19 21:52:00,
2013-06-19 18:02:00,75.0,-99.9,30.04,NE,41,4.0,9.0,-999,-99.99,,,-99.99,,2013-06-19 22:02:00,
2013-06-19 18:12:00,75.0,-99.9,-100.00,NNE,18,4.0,9.0,-999,-99.99,,,-99.99,,2013-06-19 22:12:00,
2013-06-19 18:22:00,75.0,-99.9,-100.00,NE,55,4.0,7.0,-999,-99.99,,,-99.99,,2013-06-19 22:22:00,
2013-06-19 18:34:00,75.0,-99.9,30.04,NE,51,4.0,6.0,-999,-99.99,,,-99.99,,2013-06-19 22:34:00,
2013-06-19 18:43:00,75.0,-99.9,30.04,NNE,16,5.0,8.0,-999,-99.99,,,-99.99,,2013-06-19 22:43:00,
2013-06-19 18:53:00,75.0,-99.9,30.04,NNE,16,5.0,8.0,-999,-99.99,,,-99.99,,2013-06-19 22:53:00,
2013-06-19 19:02:00,75.0,-99.9,30.04,NNE,16,5.0,8.0,-999,-99.99,,,-99.99,,2013-06-19 23:02:00,
2013-06-19 19:12:00,75.0,-99.9,-100.00,ESE,114,2.0,5.0,-999,-99.99,,,-99.99,,2013-06-19 23:12:00,
2013-06-19 19:23:00,74.0,-99.9,30.04,South,178,3.0,4.0,-999,-99.99,,,-99.99,,2013-06-19 23:23:00,
2013-06-19 19:34:00,74.0,-99.9,30.04,South,178,3.0,4.0,-999,-99.99,,,-99.99,,2013-06-19 23:34:00,
2013-06-19 19:43:00,74.0,-99.9,30.04,South,178,3.0,4.0,-999,-99.99,,,-99.99,,2013-06-19 23:43:00,
2013-06-19 20:02:00,74.0,-99.9,-100.00,SSE,160,1.0,4.0,-999,-99.99,,,-99.99,,2013-06-20 00:02:00,
2013-06-19 20:12:00,74.0,-99.9,-100.00,South,186,1.0,2.0,-999,-99.99,,,-99.99,,2013-06-20 00:12:00,
2013-06-19 20:22:00,74.0,-99.9,-100.00,South,186,1.0,2.0,-999,-99.99,,,-99.99,,2013-06-20 00:22:00,
2013-06-19 20:34:00,72.0,-99.9,30.06,South,187,7.0,9.0,-999,-99.99,,,-99.99,,2013-06-20 00:34:00,
2013-06-19 20:44:00,71.0,-99.9,-100.00,South,184,6.0,8.0,-999,-99.99,,,-99.99,,2013-06-20 00:44:00,
2013-06-19 20:52:00,70.0,-99.9,-100.00,South,187,9.0,12.0,-999,-99.99,,,-99.99,,2013-06-20 00:52:00,
2013-06-19 21:02:00,70.0,-99.9,-100.00,South,187,9.0,12.0,-999,-99.99,,,-99.99,,2013-06-20 01:02:00,
2013-06-19 21:12:00,69.0,-99.9,30.07,South,188,11.0,13.0,-999,-99.99,,,-99.99,,2013-06-20 01:12:00,
2013-06-19 21:22:00,68.0,-99.9,-100.00,SSW,203,13.0,14.0,-999,-99.99,,,-99.99,,2013-06-20 01:22:00,
2013-06-19 21:34:00,67.0,-99.9,30.09,SSW,194,11.0,14.0,-999,-99.99,,,-99.99,,2013-06-20 01:34:00,
2013-06-19 21:44:00,67.0,-99.9,-100.00,South,188,10.0,13.0,-999,-99.99,,,-99.99,,2013-06-20 01:44:00,
2013-06-19 21:53:00,67.0,-99.9,-100.00,South,191,10.0,12.0,-999,-99.99,,,-99.99,,2013-06-20 01:53:00,
2013-06-19 22:02:00,67.0,-99.9,-100.00,South,191,10.0,12.0,-999,-99.99,,,-99.99,,2013-06-20 02:02:00,
2013-06-19 22:12:00,67.0,-99.9,-100.00,SSW,197,10.0,13.0,-999,-99.99,,,-99.99,,2013-06-20 02:12:00,
2013-06-19 22:24:00,67.0,-99.9,-100.00,SSW,197,9.0,12.0,-999,-99.99,,,-99.99,,2013-06-20 02:24:00,
2013-06-19 22:34:00,67.0,-99.9,30.11,SSW,196,10.0,12.0,-999,-99.99,,,-99.99,,2013-06-20 02:34:00,
2013-06-19 22:43:00,67.0,-99.9,30.11,SSW,196,10.0,12.0,-999,-99.99,,,-99.99,,2013-06-20 02:43:00,
2013-06-19 22:53:00,67.0,-99.9,-100.00,SSW,200,10.0,12.0,-999,-99.99,,,-99.99,,2013-06-20 02:53:00,
2013-06-19 23:02:00,67.0,-99.9,-100.00,SSW,200,10.0,12.0,-999,-99.99,,,-99.99,,2013-06-20 03:02:00,
2013-06-19 23:12:00,67.0,-99.9,-100.00,SSW,204,9.0,12.0,-999,-99.99,,,-99.99,,2013-06-20 03:12:00,
2013-06-19 23:22:00,67.0,-99.9,-100.00,SSW,211,8.0,10.0,-999,-99.99,,,-99.99,,2013-06-20 03:22:00,
2013-06-19 23:33:00,67.0,-99.9,30.13,SW,214,9.0,12.0,-999,-99.99,,,-99.99,,2013-06-20 03:33:00,
2013-06-19 23:43:00,67.0,-99.9,-100.00,SW,219,9.0,11.0,-999,-99.99,,,-99.99,,2013-06-20 03:43:00,
2013-06-19 23:54:00,67.0,-99.9,-100.00,SSW,210,8.0,10.0,-999,-99.99,,,-99.99,,2013-06-20 03:54:00,